This demonstration page uses our WeatherBlox Daily Observations layout. Learn more.

Left ArrowRight Arrow

Hourly Observations for May 25, 2018

Temp ( °F °C ) Dew Point ( °F °C ) Humidity (%) Winds ( mph kmh ) Pressure ( in mb ) Visibility ( mi km ) Precip ( " mm )
12:51 am 00:51 Clear 76 24.4 22 -5.6 13 13 NW 14 22 29.86 1011 10 16 0.00 0.00
1:51 am 01:51 Clear 73 22.8 21 -6.1 14 14 NW 12 19 29.86 1011 10 16 0.00 0.00
2:51 am 02:51 Clear 70 21.1 20 -6.7 15 15 NNW 6 9 29.87 1012 10 16 0.00 0.00
3:51 am 03:51 Clear 66 18.9 20 -6.7 17 17 NW 5 7 29.88 1012 10 16 0.00 0.00
4:51 am 04:51 Clear 60 15.6 19 -7.2 20 20 SSE 3 6 29.90 1013 10 16 0.00 0.00
5:51 am 05:51 Sunny 62 16.7 20 -6.7 20 20 ESE 5 7 29.91 1013 10 16 0.00 0.00
6:51 am 06:51 Sunny 67 19.4 20 -6.7 17 17 SSE 5 7 29.93 1013 10 16 0.00 0.00
7:51 am 07:51 Sunny 73 22.8 21 -6.1 14 14 SSE 5 7 29.93 1013 10 16 0.00 0.00
8:51 am 08:51 Sunny 80 26.7 22 -5.6 11 11 W 5 7 29.92 1013 10 16 0.00 0.00
9:51 am 09:51 Sunny 84 28.9 21 -6.1 10 10 SSW 5 7 29.90 1013 10 16 0.00 0.00
10:51 am 10:51 Sunny 86 30 19 -7.2 8 8 SSW 6 9 29.89 1012 10 16 0.00 0.00
11:51 am 11:51 Sunny 91 32.8 10 -12.2 5 5 VRB 3 6 29.87 1011 10 16 0.00 0.00
12:51 pm 12:51 Sunny 93 33.9 9 -12.8 4 4 NW 7 11 29.84 1011 10 16 0.00 0.00
1:51 pm 13:51 Sunny 92 33.3 13 -10.6 5 5 undefined N/A 29.82 1010 10 16 0.00 0.00
2:51 pm 14:51 Sunny 96 35.6 13 -10.6 5 5 NW 10 17 29.79 1009 10 16 0.00 0.00
3:51 pm 15:51 Sunny 97 36.1 13 -10.6 4 4 NNW 9 15 29.77 1008 10 16 0.00 0.00
4:51 pm 16:51 Sunny 97 36.1 17 -8.3 5 5 VRB 6 9 29.76 1008 10 16 0.00 0.00
5:51 pm 17:51 Sunny 95 35 19 -7.2 6 6 NNW 9 15 29.74 1007 10 16 0.00 0.00
6:51 pm 18:51 Sunny 92 33.3 24 -4.4 8 8 NNW 8 13 29.75 1007 10 16 0.00 0.00
7:51 pm 19:51 Clear 88 31.1 21 -6.1 8 8 NW 9 15 29.75 1007 10 16 0.00 0.00
8:51 pm 20:51 Clear 85 29.4 22 -5.6 10 10 NNW 9 15 29.75 1008 10 16 0.00 0.00
9:51 pm 21:51 Clear 80 26.7 22 -5.6 11 11 NNW 8 13 29.77 1008 10 16 0.00 0.00
10:51 pm 22:51 Clear 79 26.1 24 -4.4 13 13 WNW 9 15 29.76 1008 10 16 0.00 0.00
11:51 pm 23:51 Clear 79 26.1 25 -3.9 14 14 NW 8 13 29.74 1007 10 16 0.00 0.00

Powered by AerisWeather